Back to catalog

ITASat 1

ITASAT

AliveAmateur RadioSSO
NORAD 43786·PAYLOAD·🇧🇷 Brazil

Launched Dec 3, 2018 from Vandenberg Space Force Base

Loading…

Next Passes (next 24 hours)

TLE

FreshSource: AMSAT

Epoch: Sep 14, 2026, 02:50 UTC

1 43786U 18099AE  26257.11805822  .00005342  00000-0  25051-3 0  9994
2 43786  97.3936 306.8722 0013328  47.6971 312.5391 15.20014418426413

Track ITASat 1 in real time with AllMySat

Download on the App Store